CAPE
2574 2512 2738 2769 3222 2712 2856 2597 2918 3103 3020 2870 2844 3425 3061 2757 3000 3115 2809 3386 2853 2624 1937 2214 2716 2998 2252 2778 2349 1618 1750 2025 2906 2838 3049 3030 2954 3118 2983 2863 2793 2682 2453 2249 2386 2433 2263 2074 2126 2051 2049 2095 1972 1835 1769 1775 1637 1613 1737 1872 1830 1679 1640 1649 1620 1440 1276 1383 1580 1646 1566 1459 1512 1331 1551 1373 1258 1206 1318 1243 1213 1159 1122 1121 1233
3020 3401 2928 3241 3194 3091 3192 2564 4375 3989 2723 3313 2526 2826 3563 3400 3489 3359 3078 2698 2691 3207 2728 1837 1742 2247 2528 2278 2504 1878 1904 2059 2965 2935 2833 2774 3188 3207 3120 2991 2820 2665 2486 2373 2443 2513 2464 2323 2354 2174 2024 2043 2030 2002 1947 1861 1738 1612 1645 1696 1685 1622 1603 1542 1526 1506 1300 1404 1286 1427 1323 1340 1410 1528 1563 1368 1289 1464 1560 1219 1141 1270 1394 1163 1318
2353 2897 3172 3597 2921 2678 2812 3232 2894 3069 3065 2764 2698 4122 3106 3966 3920 3406 3621 3719 3385 3126 2349 1526 998 900 1126 1458 984 775 757 2414 2536 2727 2574 2691 2961 3102 3068 2808 2775 2704 2489 2561 2515 2417 2352 2390 2363 2341 2110 1983 2022 1885 2012 2000 1879 1670 1807 1802 1786 1638 1654 1589 1520 1597 1580 1598 1489 1460 1354 1340 1400 1462 1441 1565 1671 1709 1826 1685 1547 1549 1514 1498 1321
3840 2991 2870 4173 3188 3396 3608 2863 2946 3239 2656 3067 3100 3242 3560 3311 3405 4026 3666 3533 2864 3250 2026 1766 1053 386 913 318 374 484 1044 1992 1902 2272 2660 2793 2798 3091 3006 2828 2728 2747 2651 2709 2661 2519 2435 2495 2361 2341 2034 2109 2108 1890 2062 1996 1946 2032 2005 1967 1968 1864 1804 1724 1783 1788 1690 1495 1612 1548 1490 1514 1621 1712 1663 1640 1532 1701 1619 1606 1604 1612 1579 1466 1578
4409 4155 3580 3154 3213 4095 3034 3053 2901 3692 3288 3691 2895 3908 4304 3564 3419 3582 3831 2766 3050 2561 1626 998 545 346 526 312 683 284 292 1400 1933 2081 2347 2492 2623 2865 2856 2825 2772 2794 2771 2761 2810 2703 2603 2649 2491 2385 2340 2261 2262 2146 2178 1950 2050 2051 1966 1954 1954 1925 1882 1918 2033 1908 1754 2066 1922 1658 1525 1534 1597 1728 1810 1798 1756 1814 1841 1716 1750 1767 1740 1866 1864
4258 3607 3384 3303 3377 3502 3450 4040 3703 3433 3358 4239 4031 3944 3116 3260 2824 3179 2827 3199 2233 1303 1309 1113 906 940 585 499 740 206 291 1284 1555 1754 1898 2038 2498 2689 2794 2826 2830 2831 2834 2809 2810 2780 2736 2718 2618 2467 2462 2325 2374 2281 2276 2082 2082 2024 2047 1935 1991 1939 1989 1877 1976 1934 2011 2033 1969 2025 1996 1711 1831 1686 1901 1820 1843 1859 1888 1905 1954 1860 1848 1954 1998
3362 3490 3089 3282 3133 3641 3627 3324 3680 3858 3861 3830 4094 3770 3511 3637 3698 3088 3387 2272 1581 846 796 182 459 283 426 1135 295 660 725 766 1469 1586 2207 2516 2705 2457 2675 2802 2755 2764 2720 2761 2648 2754 2681 2712 2713 2627 2459 2473 2492 2521 2330 2302 2294 2162 2096 2136 1942 1900 1993 1787 1861 2055 2076 2141 1967 2017 1922 1950 1924 1794 1852 1818 1770 1807 1773 1931 1924 1888 1925 1828 1813
3555 3520 3421 3181 3117 3117 3640 4059 3986 3763 4293 3676 3811 3999 3580 3666 3149 2900 2973 1475 1394 1337 721 891 17 0 2 304 603 120 664 752 1050 1498 1712 2584 2834 2672 2538 2678 2672 2496 2562 2610 2699 2810 2738 2739 2738 2666 2634 2616 2639 2537 2534 2404 2311 2323 1916 1853 1772 2080 1832 1730 1924 1960 2052 2052 2131 2016 1796 1856 1873 1988 1971 1638 1666 1657 1740 1807 1853 1795 1760 1625 1699
3584 3492 3410 3265 3187 2984 3479 4034 3898 3946 3907 4522 4161 3394 3637 3007 3840 2915 1869 2523 1714 58 29 371 0 46 4 0 95 172 925 2059 906 1506 1822 1960 2394 2470 2374 2396 2636 2712 2931 2628 2764 2731 2810 2785 2743 2701 2794 2738 2659 2551 2525 2479 2382 2180 2103 1844 2014 1981 1968 1682 1995 2004 1931 1936 1921 1912 1810 1640 1747 1788 1769 1792 1648 1578 1636 1653 1671 1749 1650 1699 1765
3643 3668 3586 3314 2973 3256 3329 3630 3262 4948 4639 4231 4042 3263 3264 2650 3213 3764 2482 1831 1881 346 30 38 78 0 0 182 950 1161 1033 1537 2184 2528 2591 2043 2078 2243 2333 2437 2394 2466 2614 2348 2489 2726 2612 2640 2708 2643 2603 2574 2521 2625 2463 2492 2375 2358 2236 2128 2035 2058 2050 2054 2020 2014 1924 1916 1925 1784 1609 1435 1468 1653 1755 1777 1761 1732 1688 1665 1684 1723 1713 1725 1742
3617 3813 3759 3480 3130 3564 3469 4157 4269 4430 3655 3315 3227 3667 3415 2967 2372 3292 2916 1673 1195 411 221 301 340 336 308 642 1718 1997 1984 1232 2000 1793 1487 1346 1867 2178 2249 2471 2106 2465 2381 2365 2609 2717 2746 2559 2625 2608 2412 2382 2564 2643 2566 2430 2380 2306 2355 2284 2177 2132 2118 2121 2076 1993 2022 1990 1988 1928 1853 1652 1689 1701 1705 1625 1578 1572 1622 1580 1556 1540 1571 1540 1617
3821 3676 3745 3736 3392 3334 3585 4023 3982 4255 3981 3605 2956 3358 2768 3228 2482 2662 2261 1650 606 210 34 569 1028 768 659 1148 1792 1548 1418 1245 1040 1412 1513 1575 1672 1910 2556 2344 2312 2288 2328 2519 2655 2314 2690 2788 2976 2496 2194 2351 2453 2607 2494 2230 2307 2293 2151 2192 2112 2173 2142 2120 2107 2068 2099 1987 1859 1832 1847 1799 1818 1758 1690 1496 1456 1389 1405 1389 1378 1386 1432 1457 1496
3834 3711 3606 3744 3721 3383 3849 4126 3917 3940 4353 3681 3018 2936 3427 3510 4049 3172 2403 1879 959 46 3 558 1366 2840 1411 934 950 1164 1171 987 1151 942 1124 1148 1657 2239 2586 2016 2260 2307 2247 2735 2567 2200 2540 2352 2388 2535 2260 2503 2549 2540 2339 2205 2328 2186 2022 2011 2139 2113 2117 2105 2036 1992 2012 2046 1950 1775 1778 1712 1552 1399 1232 1296 1340 1267 1196 1184 1304 1391 1323 1321 1360
3799 3723 3708 3664 3631 3636 3978 4974 4890 4202 4263 4107 3870 3594 3954 3215 3044 2912 2568 1716 938 386 22 934 461 1124 865 1067 1162 1299 1621 883 372 526 806 1198 1434 1393 1466 1676 1736 1960 2183 2762 2537 1814 1907 2248 2491 2251 2350 2340 2386 2427 2377 2356 2344 2240 2238 2189 2134 2036 1968 1901 2077 1970 1796 1868 1915 1870 1707 1527 1534 1566 1616 1419 1263 1401 1422 1397 1342 1210 1135 1264 1244
3614 3600 3549 3544 3744 3941 4888 4522 4477 4304 3908 4320 4238 4114 4268 3602 3092 2588 2353 1419 2342 158 516 130 700 1376 1424 1968 1020 1278 1082 1630 820 249 515 794 1007 1222 1345 1152 1511 2036 2188 2216 2014 1866 1829 1914 2016 2288 2395 2357 1983 1952 2245 2190 2334 2219 2022 1898 1913 1857 1823 1856 2045 1875 1821 1806 1932 1810 1715 1501 1474 1484 1425 1465 1404 1437 1482 1406 1304 1225 1112 1031 1016
3227 3179 3265 3455 4196 4657 4741 5278 4584 4017 4170 4489 3998 4395 4378 3784 3783 2683 2407 1946 132 267 254 1030 1063 2481 1440 1123 1026 1038 1138 1109 1206 567 311 333 861 885 981 1193 1451 1446 1506 1312 854 1055 827 1535 1903 2298 2322 2374 2101 2067 2283 2248 2393 2233 2027 1717 1611 1641 1554 1658 1582 1588 1628 1682 1579 1465 1370 1228 1286 1358 1166 1064 1035 458 719 761 580 519 380 402 399
3279 3206 3038 3544 4434 4297 4140 4041 3857 4234 4142 3813 3672 3976 3621 3594 3307 2469 2675 2140 964 80 304 473 1367 1441 2326 1494 921 998 1286 624 163 1158 196 217 415 522 1226 604 713 1339 1390 725 684 576 576 888 1272 1965 2136 2054 1738 1908 1853 1956 2024 2039 1791 1623 1538 1353 1012 629 583 912 1233 1276 1391 1359 1236 980 499 278 336 414 67 127 223 225 397 362 279 152 74
3393 3165 2735 3315 4355 4467 4042 4212 4156 4172 4504 4200 4032 3984 3641 3731 2974 2807 2497 2793 1479 819 403 472 1089 1555 1494 1657 1662 1471 908 1397 394 357 1573 198 451 234 171 334 671 927 2213 137 327 500 389 876 1060 834 1212 1545 1557 1163 739 1449 2045 1820 1702 1472 1086 721 459 330 303 282 540 419 416 465 343 210 238 330 168 24 136 53 50 158 140 244 230 69 76
2913 3114 2911 3306 4101 4839 4676 4070 4112 4445 4358 4394 4376 3752 3140 3297 2836 2610 2841 2399 1743 2323 1702 346 1625 1184 873 817 1341 1227 1020 1542 1471 752 244 1236 973 145 72 498 299 365 548 185 311 425 345 336 426 474 706 625 1151 971 918 796 980 1328 1388 1360 1012 730 484 317 125 35 9 58 53 38 45 75 106 120 66 15 0 24 26 6 18 45 135 182 108
2809 2980 3207 3428 4064 4323 4573 4259 4323 4370 4810 4504 3991 3525 3723 3458 3108 2754 3132 2362 1694 2118 1011 1143 926 1387 1052 1505 1104 624 940 686 888 1737 1841 1169 953 410 330 392 170 254 116 197 62 134 358 1375 354 267 581 680 192 292 626 1300 1524 1380 1650 1388 1002 825 699 364 107 4 0 2 0 0 0 0 3 3 77 6 32 53 49 2 145 57 117 184 238
3172 3071 3289 3303 3832 4226 4532 4756 4326 4429 4474 4221 3728 3334 3663 3410 3326 2972 2901 2368 2260 2042 1957 1998 1908 1677 1213 1353 1556 2818 594 179 1212 1226 1328 999 638 548 612 176 246 543 243 142 113 170 208 184 500 346 557 366 291 138 129 564 832 925 1415 1032 473 518 597 543 219 118 16 0 3 0 0 2 1 87 124 41 44 127 193 338 309 359 482 531 592
3228 3378 3392 3556 3801 3983 4146 4322 4354 3486 4176 3862 3678 3919 3831 3717 3385 3329 3154 2157 2720 1503 2075 1651 1687 2061 1616 2269 1175 1592 1582 1402 1094 810 559 797 1000 611 145 477 553 472 454 209 243 156 144 116 408 483 315 450 561 28 4 14 157 49 175 556 260 258 422 578 490 321 159 32 0 1 1 10 108 169 138 161 311 358 388 432 521 529 532 438 401
3030 3313 3626 3482 3699 3804 3425 3760 3836 3942 4210 3866 3658 3505 3610 3879 3285 3545 3497 2732 2625 2498 2006 1403 2001 1686 2036 1773 1872 1190 1538 972 721 579 526 420 482 191 69 106 87 332 516 101 368 117 427 251 119 50 383 153 444 279 117 53 76 27 188 477 354 265 166 312 172 262 157 182 243 18 130 81 118 113 142 158 226 316 352 304 300 190 134 138 185
3891 3524 3085 2745 3605 3969 3687 3684 3955 3948 4009 4002 3639 3332 3230 3488 3830 3779 3567 3412 2474 2613 2044 1939 1341 1822 910 1420 1655 1544 1278 1156 835 1046 667 1318 1110 512 1066 244 835 401 562 1087 132 282 140 163 98 407 109 288 119 705 472 501 296 413 185 387 250 319 272 9 62 6 162 325 309 250 183 116 136 147 207 305 287 224 150 93 72 100 133 182 226
4113 3879 3400 3170 3734 4080 3954 3852 3960 3797 3775 3737 3793 4160 3832 3890 4053 3704 3626 3506 3033 2520 2498 2039 1644 1665 1112 572 1120 769 956 1438 872 687 272 1145 734 956 920 670 960 813 566 484 311 178 420 98 117 341 29 871 412 1064 426 1105 608 183 0 231 202 320 217 312 45 65 104 252 414 624 642 708 657 531 438 349 168 9 0 8 60 160 204 238 306
3849 3676 3431 3228 3445 4038 4163 4158 4211 4003 3965 4112 4160 4227 4337 4012 4020 3640 3562 3523 3353 2658 2495 1766 1824 1861 1790 913 525 445 458 447 581 516 510 383 633 514 629 1284 255 412 725 733 996 565 411 192 341 277 390 638 738 1144 713 368 373 161 0 0 98 6 229 200 451 217 303 267 410 633 794 488 144 113 194 143 42 91 264 337 439 608 758 753 708
3481 3792 3588 3534 3406 3840 4238 4249 4138 4304 3986 4208 4181 4375 4346 4490 4331 3736 3487 3838 3513 3078 2490 2016 1786 1774 1656 1880 1895 1540 1033 936 685 474 168 408 87 344 823 551 366 323 556 1182 699 637 530 140 147 317 814 150 1322 723 1095 565 448 216 141 4 0 16 0 60 95 309 237 465 365 450 577 600 121 32 74 197 500 629 622 691 786 860 931 937 878
3864 3906 3676 3710 3716 3789 4104 4191 4254 4156 4303 4154 4220 4196 4575 4439 4664 4233 3936 3656 3485 3249 2828 2238 1934 1854 1709 1714 1946 1486 1411 722 630 978 212 379 2228 555 873 670 1112 912 878 798 792 951 329 833 364 522 960 484 1014 1173 960 630 452 1023 866 201 328 0 0 0 0 15 98 172 362 452 893 719 407 386 396 453 552 646 621 633 578 660 764 921 932
4046 3834 3799 3625 4014 3936 4054 3937 4432 4166 4283 4445 4436 4443 4713 4581 4570 4389 3925 3242 3530 3341 3005 2669 2165 1644 1802 1997 1985 1658 1288 1633 1206 925 1708 534 1400 2304 1575 1140 1120 1646 896 752 1063 675 369 42 262 933 1009 937 658 1092 881 891 755 908 448 174 504 810 104 0 0 0 0 64 127 245 411 618 643 701 630 553 448 538 649 685 735 724 672 598 580
3463 3070 3450 3729 3621 4103 3987 4028 4386 4447 4102 4210 4595 4555 4770 4714 4573 4528 4050 3772 3637 3565 3343 2867 2340 2002 1774 1886 1987 1612 1423 1163 1182 679 1042 1957 1527 1496 1355 1406 1673 1093 1481 1212 1247 699 959 283 4 876 1394 1059 1013 1278 811 1076 635 1135 654 583 573 570 832 53 30 27 91 163 216 208 290 388 468 429 350 273 347 433 537 513 468 445 348 399 432
3184 3342 3731 3722 3666 3786 4071 4335 4620 4601 4470 4399 4646 4577 4531 4647 4438 4625 4323 4263 3913 3634 3512 3261 2661 2180 2122 1982 2113 1964 1670 1016 865 752 866 2257 1571 1888 1236 1357 1486 1452 1301 1504 975 2095 312 2002 0 372 1256 822 740 771 708 966 904 1134 870 759 874 1221 782 370 194 208 209 228 224 161 105 96 57 79 73 90 81 79 164 183 198 326 410 430 389
3599 3318 3971 3572 3845 3700 3773 3822 3952 4442 4578 4298 4527 4568 4354 4377 4160 4190 4247 4383 4115 3682 3356 3165 2803 2421 2356 2233 2461 2342 2001 1512 1128 1213 1584 1956 1709 1483 1735 1334 1603 1509 1551 1570 1286 1390 1616 328 895 705 985 900 1362 791 634 496 1766 1176 527 820 1150 1188 1376 1046 257 289 210 167 110 74 2 0 0 0 3 13 6 5 159 198 225 286 229 205 243
3659 3344 3294 3518 3957 4069 3533 3410 3586 4127 4465 4246 4186 4398 4298 4151 4216 4208 4118 4436 4219 3824 3536 3303 2948 2751 2510 2304 2395 2555 2269 1854 1518 1292 1325 1577 1568 1525 1354 1602 1303 1514 1421 1404 1352 1220 1244 1057 939 740 575 934 831 1153 1263 1209 1241 751 784 745 1863 1157 1234 1189 894 240 147 39 7 0 0 0 0 0 0 0 0 49 145 214 241 34 11 10 14
3775 3556 3328 3141 3852 4286 4185 4064 4002 4324 4614 4464 4108 4330 4372 4289 4218 4118 3950 4421 4331 4061 3750 3604 3290 2841 2627 2518 2471 2480 2376 1983 1661 1404 1311 1195 1347 1019 1262 1270 1207 1244 1406 1112 1240 1320 1047 1413 764 899 1484 922 1283 651 734 882 877 890 724 848 1022 1632 1127 814 776 850 117 6 0 0 0 0 0 0 0 0 0 3 33 33 2 0 0 0 0
3589 3559 3696 3227 3413 4062 4189 4408 4499 4403 4685 4574 4193 4195 4414 4401 4318 3825 3526 3862 4231 4095 3926 3719 3541 3108 2727 2580 2530 2406 2211 2061 1793 1487 1298 1303 1177 1081 1048 1010 1092 1131 1346 1281 1182 1014 1040 1405 1419 1058 807 978 914 1152 660 964 1202 1373 1066 1026 684 592 684 993 773 503 566 0 0 0 0 0 0 0 0 0 0 0 0 0 0 0 0 0 0
3340 3489 3688 3776 3979 4089 4350 4493 4759 4517 4594 4569 4337 4122 4342 4490 4445 4232 3727 3510 3900 4049 3972 3810 3583 3255 2826 2632 2380 2242 2139 2022 1876 1577 1374 1386 1456 1572 1270 1177 1179 1184 1386 1245 1391 1161 1118 1062 1606 874 1051 765 1050 1164 1160 1071 803 1156 1507 1355 1184 870 714 778 674 465 1646 328 0 0 0 0 0 0 0 0 0 0 0 0 0 0 0 0 0
3130 3535 3588 3967 4423 4472 4241 4522 4961 4854 4574 4626 4387 4064 4200 4437 4513 4390 4042 3654 3604 3950 4016 3932 3663 3323 3012 2604 2448 2317 2268 2102 2086 1680 1455 1422 1299 1674 1531 1473 1313 1358 1357 1448 1225 1314 1462 1254 1300 1453 1689 1052 1172 953 936 1048 1001 997 1238 1157 1303 1064 1092 810 454 419 1112 302 0 0 0 0 0 0 0 0 0 0 0 0 0 0 0 0 0
2698 3084 3832 3738 4191 4674 4386 4319 4714 4922 4775 4709 4616 4372 4084 4212 4453 4472 4314 3875 3480 3643 3970 3874 3625 3299 3051 2790 2529 2440 2302 2194 2138 1916 1620 1396 1365 1360 1646 1547 1381 1378 1426 1599 1475 1219 1220 1568 1410 1539 1484 1641 1018 1236 847 733 1152 817 1074 1160 1078 1116 1170 751 392 317 695 1 0 0 0 0 0 0 0 0 0 0 0 0 0 0 0 0 0
2568 2260 3324 3876 3829 4609 4742 4476 4484 4735 4862 4746 4742 4786 4486 4234 4444 4573 4394 4153 3691 3525 3618 3584 3365 3150 2966 2922 2804 2673 2458 2295 2198 2119 1864 1562 1406 1290 1534 1703 1529 1399 1370 1449 1716 1410 1244 1166 1420 1491 1710 1216 1376 1252 1244 1046 966 1204 954 961 948 934 1147 1178 873 590 843 289 46 5 6 0 0 0 0 0 0 0 0 0 0 0 0 0 0
2716 2701 2719 3854 4248 4362 4830 4766 4646 4627 4882 4938 4900 4976 4918 4635 4513 4590 4476 4355 4090 3760 3552 3564 3381 3071 2937 2887 2756 2782 2632 2514 2356 2304 2102 1784 1551 1411 1465 1668 1715 1522 1426 1392 1454 1590 1458 1234 1115 1203 1133 1639 1024 1118 1540 1168 1088 1095 1108 1011 866 943 876 1083 1055 1150 575 701 402 204 53 4 0 197 189 0 0 0 0 0 0 0 0 0 0
3340 3193 2733 2700 4064 4285 4628 5003 4882 4689 4718 4859 4812 4906 5010 4909 4546 4402 4542 4471 4347 4036 3797 3626 3630 3447 3193 2951 2795 2702 2800 2671 2405 2247 2197 1932 1742 1536 1577 1690 1729 1646 1584 1484 1420 1412 1581 1521 1314 1174 1180 1050 1336 920 956 1186 876 797 944 855 933 1047 1110 1181 1287 1161 1398 1122 655 472 502 224 137 87 3 0 0 0 0 0 0 0 0 0 0
3753 3770 3299 2741 3094 4332 4490 5024 5218 4963 4742 4741 4490 4466 4532 4750 4637 4197 4289 4519 4429 4153 4036 3773 3557 3568 3278 2989 2829 2530 2524 2610 2512 2264 2128 2019 1741 1602 1626 1700 1691 1703 1661 1626 1561 1457 1497 1603 1557 1371 1132 1084 1038 1194 881 914 1074 996 1069 1070 761 966 1248 1072 1258 1608 1501 1408 1384 1078 1027 474 249 330 113 20 3 68 3 0 0 0 0 0 0
3641 4186 4054 3659 2783 3200 4434 4710 5152 5056 4848 4774 4534 4451 4321 4290 4450 4318 4163 4542 4591 4448 4194 3991 3725 3565 3359 3029 2977 2809 2600 2577 2635 2432 2092 2070 1954 1672 1457 1596 1682 1725 1673 1649 1634 1518 1440 1502 1543 1454 1229 1111 1100 1064 1168 975 975 1124 934 1133 945 874 879 810 692 1484 2446 1695 1349 1203 1140 936 434 536 282 75 96 136 154 17 32 0 0 0 0
3650 4106 4326 4172 3773 3080 3988 4606 4774 4978 4908 4588 4617 4617 4505 4445 4267 4295 4269 4351 4611 4567 4292 4052 4004 3743 3546 3402 3226 3201 2977 2726 2651 2535 2245 2010 2034 1968 1730 1460 1621 1583 1529 1561 1539 1555 1471 1430 1478 1428 1306 1224 1197 1125 1070 1043 1065 1094 1126 1097 1200 936 889 787 629 649 1726 1450 1167 754 645 1124 710 727 645 719 443 200 14 29 0 0 0 0 0
3571 3947 4452 4404 4310 3917 3589 4542 4830 5020 5146 4785 4752 4720 4510 4437 4319 4067 4337 4278 4240 4426 4318 4066 3907 3936 3759 3588 3545 3425 3460 2970 2800 2688 2510 2178 1985 2004 1905 1679 1568 1578 1484 1439 1379 1454 1502 1485 1439 1444 1389 1280 1287 1250 1106 999 1139 1120 1189 1145 1166 1118 966 915 852 735 1822 1160 1155 898 644 920 561 483 304 421 143 45 6 0 0 0 0 0 0
3891 4029 4154 4498 4471 4459 4123 4235 4685 4963 5190 4966 4752 4718 4584 4348 4188 3927 4159 4432 4395 4335 4410 4339 4074 4026 4134 3958 3716 3556 3468 3417 3048 2841 2739 2585 2305 1974 1924 1760 1535 1518 1528 1423 1340 1317 1418 1535 1528 1461 1506 1387 1242 1325 1288 1098 1209 1088 1177 1101 1027 1080 1024 980 1148 1180 1989 1280 1050 870 693 897 595 390 242 153 148 91 50 36 0 0 0 0 0
4034 4117 4206 4337 4630 4589 4494 4245 4409 4883 4833 4872 4874 4746 4654 4506 4223 3996 3698 4260 4386 4468 4563 4620 4523 4238 4234 4268 3954 3576 3472 3598 3106 2926 2764 2608 2453 2269 1957 1808 1614 1558 1527 1480 1373 1324 1277 1317 1454 1520 1531 1483 1363 1470 1544 1288 1137 1267 1240 1165 1029 903 1114 1216 1431 1520 1836 1320 1209 790 616 704 521 312 257 171 104 97 46 18 0 0 0 0 0
4090 4452 4724 4346 4402 4598 4724 4588 4158 4276 4322 4372 4769 4850 4730 4466 4332 4090 3760 4008 4204 4416 4702 4723 4733 4683 4486 4269 4111 3841 3480 3440 3411 3027 2833 2714 2570 2285 2148 1888 1711 1546 1647 1469 1412 1257 1192 1186 1147 1277 1445 1518 1417 1462 1548 1598 1323 1297 1352 1440 1450 1138 1148 1209 1008 1448 1458 1203 1161 693 590 489 463 194 190 132 48 0 0 2 0 0 0 0 0
4446 4645 4682 4544 4528 4630 4752 4841 4621 4263 4147 3910 3993 4544 4736 4693 4430 4159 3982 3831 4096 4101 4196 4641 4875 4868 4752 4523 4253 4095 3876 3569 3331 3211 2922 2729 2905 2655 2242 2046 1879 1692 1535 1577 1390 1308 1152 1026 973 978 1154 1338 1364 1331 1294 1170 1380 1325 1116 850 1003 1068 940 965 1106 1037 1010 1024 897 632 419 356 294 131 83 1 108 28 0 2 11 0 0 0 0
4313 4485 4581 4659 4855 4892 4697 4744 4791 4720 4734 4297 3775 3818 4281 4593 4587 4422 4104 3822 4083 4072 3971 4047 4467 4942 5006 4594 4315 4275 4130 3944 3508 3338 3119 2835 2918 3013 2610 2276 1999 1829 1739 1566 1524 1371 1224 1124 992 862 804 952 1130 1124 1049 935 793 1064 1012 760 816 676 865 928 928 817 720 704 748 584 365 279 282 132 57 57 3 0 0 0 0 49 0 0 0
4140 4503 4670 4846 5032 5040 4720 4582 4658 4687 4743 4617 4263 3921 3757 4080 4403 4462 4307 4035 4000 4152 4077 4057 4088 4296 4738 4645 4416 4191 4218 4108 3806 3538 3297 3003 2772 3119 2984 2615 2257 2119 1986 1769 1705 1524 1435 1284 1164 1031 910 776 725 840 855 790 664 729 916 913 784 678 819 967 833 804 596 594 622 518 441 268 92 108 9 0 0 0 0 14 5 0 0 0 0
Wind_Speed
10 12 9 8 9 9 11 11 10 10 11 11 8 7 10 10 10 11 9 12 8 9 10 11 7 11 11 12 13 17 14 14 12 11 10 11 12 14 18 19 18 18 17 17 16 16 15 14 13 13 13 12 11 10 11 11 11 11 12 12 11 11 11 11 10 9 9 8 8 8 8 8 10 10 11 10 10 10 10 10 10 10 10 10 10
10 7 6 7 9 9 9 9 8 10 10 9 9 10 9 8 11 10 11 10 10 13 9 12 14 12 11 12 13 14 16 12 11 10 10 10 10 12 17 17 17 17 16 15 16 16 16 16 15 13 13 13 12 11 10 10 10 9 10 11 10 10 10 10 10 10 9 8 8 9 8 7 7 7 8 8 8 8 7 7 8 9 9 10 10
7 8 6 10 5 9 9 6 9 10 6 6 8 11 10 11 15 13 13 12 9 12 12 12 11 12 11 13 12 10 8 12 11 11 10 8 9 10 12 16 16 15 14 14 14 14 15 15 14 14 13 12 12 11 10 10 9 8 9 9 9 9 9 9 9 8 9 9 9 9 8 7 8 7 6 6 4 4 4 5 6 8 8 9 10
5 8 5 5 5 8 7 7 10 9 6 10 10 13 15 15 14 13 11 10 13 13 13 14 12 12 14 11 12 12 12 13 12 10 9 8 9 10 10 10 14 15 14 13 13 13 14 14 13 13 13 13 12 12 11 11 10 9 8 8 9 9 8 8 8 8 8 9 9 9 9 10 10 10 9 8 5 3 3 4 5 7 8 9 9
2 6 5 6 7 6 8 8 11 11 9 10 13 12 14 14 15 13 12 10 16 17 16 14 13 10 10 11 10 12 12 12 12 12 13 12 10 11 10 10 10 14 14 12 12 12 13 13 14 13 12 12 11 11 12 11 11 10 10 10 9 9 9 9 8 8 7 6 7 8 9 10 11 11 11 10 8 7 6 6 7 8 10 11 12
4 6 5 7 6 9 8 8 7 11 13 14 11 13 12 15 13 14 15 16 16 12 11 11 9 11 11 11 12 12 13 16 13 14 14 13 12 11 10 9 10 10 10 13 12 12 12 12 12 13 13 13 12 12 13 12 12 12 12 12 11 10 10 11 10 10 10 10 10 10 10 9 10 10 10 10 9 9 8 8 9 10 11 12 14
3 4 7 5 7 8 9 9 10 10 10 10 13 14 13 14 14 12 13 14 13 11 10 7 9 10 8 11 14 12 13 14 15 13 12 12 13 12 10 9 10 11 11 10 11 11 11 11 11 11 12 12 13 14 14 13 14 14 13 13 13 11 11 11 11 11 11 11 11 11 11 10 10 10 11 10 9 10 10 10 11 11 12 13 14
4 5 5 6 5 7 7 6 7 10 6 9 12 10 13 11 10 11 10 11 9 12 10 13 nan nan nan 11 12 13 10 9 12 13 13 12 11 11 10 10 10 10 12 11 9 9 12 12 12 12 11 12 12 13 15 15 15 14 14 13 13 10 10 10 11 11 11 11 11 11 10 9 11 11 9 9 9 9 10 11 12 12 13 13 13
4 5 6 6 6 7 7 8 9 7 8 10 9 10 12 10 9 9 10 11 13 nan nan 8 nan nan nan nan nan 9 9 8 9 10 12 11 12 12 11 10 10 12 9 10 9 8 10 12 12 12 12 12 12 13 14 15 16 15 13 14 13 13 13 13 13 13 12 11 11 11 11 11 9 10 10 11 10 10 9 9 11 11 11 12 11
5 5 6 5 5 6 5 7 8 5 7 9 10 12 9 10 10 9 10 10 9 7 nan nan nan nan nan 8 6 8 11 11 10 11 12 13 14 14 12 11 10 9 8 8 9 8 7 9 11 11 11 12 12 13 14 14 15 14 14 14 14 15 14 15 14 13 13 13 12 12 10 11 12 12 11 10 10 10 10 10 10 10 10 10 10
5 5 5 5 5 6 8 8 6 6 8 9 10 9 9 11 10 12 10 10 8 9 9 7 11 5 6 8 10 11 10 13 16 15 14 15 16 17 15 13 11 9 7 7 7 8 10 8 8 8 9 13 13 13 14 14 14 14 14 14 13 13 14 13 13 13 12 12 12 13 13 13 12 10 9 8 8 8 8 9 10 9 9 9 9
5 6 6 6 6 6 8 8 7 8 6 7 7 7 6 8 9 12 11 10 9 7 nan 9 5 9 9 13 12 13 12 12 14 15 14 16 16 15 14 14 12 10 8 6 7 7 8 9 8 9 10 13 15 15 15 14 13 13 15 14 14 13 14 13 13 13 13 13 12 13 12 12 11 10 10 8 7 7 7 8 8 9 8 8 8
5 6 6 6 6 5 6 6 6 6 8 10 11 10 11 10 10 11 11 11 9 nan nan 9 10 10 10 13 14 14 14 13 13 14 16 15 16 16 14 16 15 12 9 7 7 6 6 8 8 9 11 11 14 17 16 14 13 12 13 13 13 13 13 13 14 13 14 13 14 13 13 12 10 9 9 10 10 9 9 10 11 9 9 8 7
5 6 7 6 6 5 5 5 4 5 6 7 12 11 10 10 12 11 12 9 9 8 nan 9 7 13 13 13 13 13 12 15 17 17 17 17 16 17 17 17 17 15 11 9 7 6 8 8 10 11 12 13 13 13 13 13 14 16 14 14 14 13 13 13 13 14 14 15 15 16 15 15 14 14 14 12 11 11 10 11 11 11 9 9 8
5 7 7 8 7 7 6 5 6 6 7 9 8 10 10 10 16 15 13 11 10 12 12 10 10 11 12 11 14 15 14 14 16 17 16 20 19 21 20 20 19 16 14 12 12 11 11 10 9 10 10 11 10 10 12 14 15 18 17 17 16 16 16 15 15 16 15 16 17 18 17 16 16 15 15 15 14 14 14 13 14 13 12 12 12
6 7 7 8 7 7 6 6 6 7 10 11 11 12 12 13 14 16 14 13 14 14 13 13 11 10 11 15 17 16 14 16 16 15 19 21 21 21 21 21 21 17 18 18 17 14 11 13 13 11 12 11 11 11 10 9 16 18 19 18 18 18 18 18 18 17 18 18 19 19 19 18 17 17 17 17 16 17 16 16 16 15 15 14 14
6 7 7 7 7 7 7 7 8 10 10 9 12 13 13 14 16 16 15 12 12 nan 11 12 11 10 10 13 15 13 15 17 16 13 14 17 20 23 22 22 18 18 19 15 12 11 10 9 11 13 14 13 12 11 10 11 11 12 15 18 18 18 20 20 21 21 22 22 22 21 21 20 19 20 20 20 nan 19 19 19 18 18 17 17 nan
4 6 7 7 8 9 9 8 9 9 10 13 13 13 13 13 15 15 15 14 13 13 12 12 13 12 13 11 14 13 13 11 11 13 12 13 16 18 19 20 18 18 15 15 18 12 12 12 11 12 14 15 13 13 12 13 12 11 11 15 20 20 21 22 22 23 23 23 23 24 24 24 24 23 23 nan 22 nan nan 21 21 20 19 nan nan
6 6 7 8 8 8 9 10 9 10 11 12 13 14 13 13 14 15 15 12 11 9 11 13 11 11 13 15 16 14 10 11 9 9 10 11 12 17 nan 20 21 18 18 21 17 18 16 16 15 11 10 11 14 15 15 16 18 18 19 21 21 22 21 22 22 nan nan nan nan nan nan nan 25 24 nan nan nan nan nan nan nan nan 21 21 20
5 5 8 8 9 9 9 11 11 11 12 12 13 14 13 12 14 16 12 13 12 12 11 13 14 14 14 13 11 9 9 10 11 9 10 10 11 11 17 19 18 19 19 20 nan 16 15 13 14 14 14 13 13 14 13 13 13 16 18 24 24 24 24 23 23 nan nan nan nan nan nan nan nan nan nan nan nan nan nan nan 23 nan 23 22 22
5 5 8 9 10 10 10 10 10 11 11 11 12 14 14 14 14 14 12 12 12 12 11 11 13 15 15 12 9 9 11 13 10 8 8 10 11 12 13 17 18 13 16 15 15 14 13 14 14 15 16 16 17 16 16 16 17 17 20 26 25 26 25 25 25 25 nan nan nan nan nan nan nan nan 23 nan nan 23 24 23 22 23 22 22 21
4 4 6 8 10 11 12 13 12 12 12 11 12 12 13 13 13 13 12 12 12 12 11 12 11 8 12 9 9 8 7 9 9 11 10 8 9 10 13 12 12 11 12 12 13 13 14 14 12 14 16 17 18 nan nan nan 19 nan 21 27 26 26 26 26 25 26 26 nan nan nan nan nan 24 24 24 24 23 23 22 22 21 20 20 20 20
4 3 6 8 8 11 13 14 13 12 11 10 11 13 13 12 13 13 12 14 12 13 13 13 11 12 11 11 10 9 9 9 10 11 11 9 9 9 nan 13 nan 10 9 10 8 12 13 14 15 nan 17 18 18 20 20 nan nan nan 27 28 26 27 27 27 26 26 25 26 26 nan 27 nan 25 25 24 24 23 22 22 21 20 20 19 19 19
6 6 6 10 8 9 11 12 13 12 12 10 9 11 12 13 12 13 12 11 13 12 13 14 14 13 11 11 11 10 11 10 11 10 9 9 10 10 7 4 6 7 7 4 6 9 14 16 nan 15 18 17 18 19 21 22 23 30 28 30 28 27 27 nan nan nan 27 26 25 26 27 27 27 26 25 25 24 23 23 nan nan 21 21 21 21
9 8 8 9 10 9 10 10 12 13 12 12 9 9 10 12 12 13 12 11 12 13 13 14 16 15 14 10 12 12 11 12 9 9 12 10 7 5 6 8 6 6 7 8 8 9 9 nan 18 15 nan 16 18 17 20 20 21 29 nan 27 32 28 27 26 nan nan 28 28 28 28 28 26 25 25 25 25 24 nan nan nan nan 24 24 24 24
10 10 10 10 10 11 11 11 10 12 13 12 11 9 9 10 12 13 13 12 11 13 12 14 13 14 13 12 11 14 14 12 11 8 10 11 10 9 7 4 6 6 6 7 7 9 8 9 13 16 17 15 17 17 18 19 22 29 nan nan nan nan 29 28 28 28 29 29 30 30 31 30 30 30 28 27 nan nan 26 25 25 25 25 26 26
10 11 11 12 11 12 13 12 11 11 13 13 12 11 9 8 10 12 12 12 12 12 13 12 13 14 13 12 12 11 15 14 12 13 9 10 nan 10 9 6 4 5 7 6 7 7 9 12 14 17 15 17 18 20 19 18 22 29 30 nan nan nan nan nan nan 29 30 31 31 32 32 32 32 nan nan 29 28 27 26 26 25 25 25 26 27
12 12 12 12 13 13 14 13 12 12 13 14 14 13 11 10 9 10 11 12 12 13 12 12 12 13 14 12 12 12 11 13 12 12 13 9 10 13 10 7 5 6 8 8 9 9 10 9 12 18 18 19 18 19 20 20 17 29 27 22 23 nan nan nan nan nan nan 29 29 30 31 31 31 30 29 28 27 27 26 26 26 26 26 27 27
12 12 12 11 12 14 14 13 13 13 13 15 15 15 14 12 11 10 10 11 12 12 11 11 10 12 12 13 13 12 12 9 11 10 12 13 8 8 9 10 8 6 7 9 10 12 14 nan 12 15 22 21 20 20 22 21 22 26 24 22 22 24 27 nan nan nan nan nan 27 28 27 28 28 28 28 27 26 26 25 25 25 25 26 27 27
10 11 12 13 12 14 15 14 14 14 15 16 16 16 16 15 13 10 9 9 11 11 10 10 10 9 10 12 13 13 12 12 11 12 10 12 12 10 9 10 11 11 9 9 8 9 11 16 nan 16 19 22 22 20 22 23 26 30 25 25 23 22 29 nan nan nan nan 28 28 27 27 27 27 27 26 26 25 25 25 25 26 27 27 27 27
11 11 13 13 13 13 14 15 15 15 15 16 17 16 17 17 15 13 10 9 10 11 11 9 9 10 10 11 13 13 14 13 12 13 13 14 15 14 14 13 13 13 12 13 12 10 13 14 nan 20 23 22 22 22 21 23 26 30 27 25 24 26 28 30 32 31 30 30 29 29 28 nan nan nan nan nan nan nan 27 28 28 29 29 29 30
14 13 14 15 15 15 15 15 16 16 16 17 18 17 17 17 17 15 12 11 9 11 11 10 9 10 11 12 12 14 15 14 14 13 14 15 16 18 16 17 16 16 16 15 16 13 15 16 19 22 26 24 22 22 24 24 28 33 26 25 24 29 28 28 32 33 33 33 33 nan nan nan nan nan nan nan nan nan 29 30 31 31 32 32 33
16 16 15 16 18 18 17 16 16 17 17 17 18 18 17 17 17 17 15 13 11 10 11 11 10 10 12 12 13 15 16 16 15 14 15 16 18 19 19 19 18 18 18 18 17 16 16 19 21 23 25 28 24 22 21 23 26 27 25 26 27 27 27 29 30 34 35 nan nan nan nan nan nan nan nan nan nan nan 32 33 33 nan nan nan nan
17 17 17 17 18 20 20 19 18 19 19 18 19 19 19 18 18 18 17 16 14 11 11 11 12 11 13 14 15 16 17 17 17 17 16 17 20 20 20 20 19 18 18 19 17 17 17 18 18 19 20 26 25 25 23 23 27 26 27 26 26 28 27 27 28 30 37 nan nan nan nan nan nan nan nan nan nan nan nan nan nan nan nan nan nan
18 17 18 18 18 19 20 21 21 20 21 21 20 19 20 20 19 19 19 18 17 14 13 12 13 12 13 15 17 18 18 18 18 17 18 18 19 21 21 19 18 17 17 16 16 16 15 15 18 19 20 19 20 23 24 23 24 28 28 28 28 27 28 28 28 27 37 nan nan nan nan nan nan nan nan nan nan nan nan nan nan nan nan nan nan
19 19 20 20 20 20 20 21 22 21 21 22 22 21 21 21 21 21 21 19 18 17 14 13 13 13 14 15 17 19 19 20 20 19 18 18 18 19 20 18 17 16 15 16 16 15 15 15 16 20 21 22 20 22 24 24 24 24 27 29 29 29 30 31 29 28 33 40 nan nan nan nan nan nan nan nan nan nan nan nan nan nan nan nan nan
19 21 21 21 22 22 21 21 21 22 22 23 24 23 21 21 22 22 22 21 18 17 15 14 14 14 14 15 17 19 20 20 21 20 19 18 18 17 18 17 17 15 14 17 18 17 17 18 17 18 20 24 24 24 25 26 26 25 26 28 30 31 30 29 30 33 38 44 nan nan nan nan nan nan nan nan nan nan nan nan nan nan nan nan nan
18 19 22 22 22 22 22 22 21 21 22 22 23 24 23 22 22 22 23 23 20 17 15 14 13 13 13 15 16 18 19 21 21 22 21 19 18 17 17 17 17 17 17 17 20 21 20 18 20 19 21 23 24 25 28 28 28 30 28 29 29 30 32 33 31 32 34 nan nan nan nan nan nan nan nan nan nan nan nan nan nan nan nan nan nan
18 17 20 22 22 22 22 22 21 21 22 22 22 23 23 22 22 23 24 23 21 17 14 14 13 13 13 14 16 17 18 20 22 23 23 21 19 18 18 18 19 18 19 19 20 22 23 22 21 21 22 24 26 27 29 31 31 31 33 32 31 32 32 35 35 34 36 38 nan nan nan nan nan nan nan nan nan nan nan nan nan nan nan nan nan
18 18 18 21 23 22 21 21 21 21 21 22 21 22 22 23 22 23 24 24 20 16 14 13 13 12 13 14 15 16 18 19 21 23 25 24 22 20 20 20 20 21 21 21 21 23 24 24 25 25 25 26 27 27 29 33 32 31 33 34 35 35 36 36 37 37 37 41 40 40 nan nan nan 42 43 nan nan nan nan nan nan nan nan nan nan
17 17 17 18 21 21 21 21 21 21 21 20 21 22 22 23 23 23 24 23 20 16 14 14 14 14 14 14 14 15 18 20 23 24 26 28 26 24 23 24 24 24 23 23 23 24 24 26 26 27 28 28 29 31 32 34 37 37 35 35 34 36 37 37 38 39 38 40 41 42 43 43 42 nan nan nan nan nan nan nan nan nan nan nan nan
18 18 16 15 17 20 21 21 20 20 19 19 21 25 24 23 23 22 21 20 18 16 15 15 16 17 16 15 14 16 19 23 24 26 27 30 30 28 27 28 28 27 27 27 26 26 27 28 28 30 30 31 32 33 34 34 35 37 37 38 37 36 37 37 37 40 42 41 41 41 42 44 44 43 44 nan nan nan nan nan nan nan nan nan nan
18 19 18 16 14 16 19 20 20 19 18 18 23 24 25 25 22 20 19 17 17 17 15 16 16 18 19 19 17 19 20 22 24 28 28 29 31 31 31 31 31 31 31 31 30 30 30 29 30 32 33 33 35 35 36 37 37 39 41 40 40 39 39 39 38 38 41 45 44 43 42 43 45 46 46 nan nan 43 44 nan nan nan nan nan nan
18 19 19 17 15 14 17 18 18 17 15 17 23 23 23 23 21 19 18 17 17 17 17 17 17 18 20 21 21 20 22 24 24 25 28 30 31 33 33 33 33 34 34 34 35 34 34 33 33 34 35 36 38 38 39 41 40 40 42 43 43 43 41 40 39 40 42 47 46 46 44 45 47 47 47 46 45 43 nan nan nan nan nan nan nan
20 19 19 19 17 16 14 16 16 15 12 16 20 21 21 21 22 20 16 17 18 18 18 19 19 20 20 21 22 23 23 29 28 27 27 28 31 34 36 35 34 36 34 34 36 36 37 36 35 35 37 39 41 41 42 43 44 43 45 45 45 45 45 44 42 41 44 49 48 47 46 47 50 50 48 46 45 nan nan nan nan nan nan nan nan
21 19 19 19 18 17 15 13 14 14 12 15 19 20 20 21 21 20 15 16 16 17 18 20 20 21 22 22 23 23 24 27 29 29 29 29 30 32 34 33 32 34 35 35 35 36 37 37 37 36 38 41 41 43 45 46 48 48 49 48 48 48 50 50 48 46 46 50 51 50 48 49 52 52 49 47 46 nan nan nan nan nan nan nan nan
20 19 19 19 19 18 17 15 12 11 10 16 18 19 18 19 20 17 14 15 14 15 17 19 21 23 24 25 25 25 26 28 30 32 32 32 31 33 35 36 35 34 34 32 33 35 35 35 37 37 39 41 42 44 46 47 48 50 52 52 53 51 52 52 52 52 52 51 51 52 49 50 52 52 49 47 44 nan nan nan nan nan nan nan nan
19 19 19 18 18 18 17 15 13 10 8 15 18 18 19 19 22 18 16 17 16 16 17 19 21 23 24 26 28 28 30 31 34 40 39 36 35 36 37 37 37 36 34 33 35 36 36 37 37 39 41 42 44 45 47 48 49 51 53 54 56 56 57 57 56 56 56 53 52 53 51 51 52 52 51 49 nan nan nan nan nan nan nan nan nan
20 20 19 17 17 17 16 16 14 10 9 13 17 17 18 22 22 20 21 21 20 19 18 21 23 24 26 28 30 30 31 32 36 42 43 44 38 38 39 39 39 40 38 37 37 38 38 38 37 38 42 45 46 47 49 50 52 54 56 56 58 60 60 59 58 59 58 60 56 54 53 52 52 51 nan nan 47 nan nan nan nan nan nan nan nan
20 19 19 19 19 18 17 17 16 14 12 15 20 18 19 22 24 23 24 25 24 23 23 24 25 26 27 29 31 31 31 32 36 43 46 47 41 39 41 41 41 41 40 41 42 41 40 41 41 41 43 45 48 50 50 50 53 57 56 56 60 61 60 61 61 60 60 61 61 59 56 53 54 52 nan nan nan nan nan nan nan nan nan nan nan
20 21 21 21 20 20 19 18 19 18 15 16 22 23 24 25 25 23 26 27 27 28 30 29 29 28 28 29 31 30 30 32 37 42 47 48 42 41 43 44 43 43 42 45 45 46 44 45 42 43 44 46 51 53 52 52 53 55 56 57 61 62 61 61 62 62 59 59 62 62 57 55 nan 52 nan nan nan nan nan nan nan nan nan nan nan
Wind_Direction
88 87 76 90 81 68 71 69 65 54 59 63 73 71 59 58 59 47 51 41 38 50 36 26 28 36 8 41 355 20 14 38 28 21 19 18 16 12 5 4 5 6 4 1 359 358 358 356 355 354 354 355 357 358 358 357 357 352 355 355 355 353 354 355 358 356 350 337 327 325 323 315 303 298 294 294 293 294 298 304 312 314 315 314 318
95 103 86 64 71 75 68 75 68 54 45 43 43 52 43 47 54 46 36 44 28 34 25 36 7 21 16 24 27 21 9 12 16 14 11 12 7 7 1 4 5 5 8 4 360 3 359 360 0 359 358 359 0 360 1 6 8 5 360 2 2 3 2 5 11 14 16 10 5 7 360 343 332 320 308 290 284 284 296 307 310 312 315 314 315
86 71 69 68 56 64 70 63 69 62 51 37 53 42 41 31 44 36 32 34 28 38 32 34 22 13 16 19 21 24 11 354 4 3 359 1 360 3 2 356 359 1 6 6 3 4 3 3 2 2 2 2 2 3 3 3 8 5 5 5 7 9 9 9 16 19 21 18 22 29 27 21 17 12 357 333 314 295 303 320 322 325 325 322 315
93 81 80 73 70 60 49 47 54 68 30 43 37 47 40 37 41 43 36 24 36 39 35 40 21 19 13 23 11 19 358 3 357 358 351 353 357 358 357 356 352 354 358 6 7 6 4 4 1 2 4 4 8 6 3 7 5 359 357 4 6 8 11 16 17 21 22 20 23 31 34 31 35 42 44 43 44 37 23 3 357 355 349 340 328
80 93 46 59 51 54 53 38 42 51 42 49 46 52 51 39 42 37 40 28 42 35 36 30 28 29 30 12 18 19 5 358 359 3 353 353 359 358 353 349 347 347 346 357 4 6 7 6 2 359 2 9 5 10 5 10 9 4 4 3 6 9 11 13 12 15 17 12 22 32 37 39 39 40 46 52 54 50 39 29 20 13 8 5 357
45 51 47 42 36 49 41 50 45 50 39 39 41 45 49 49 44 34 34 30 39 38 44 43 29 25 23 16 19 10 31 352 5 0 358 353 357 356 350 348 337 343 339 345 352 355 356 2 4 2 5 5 3 6 9 13 13 9 10 10 11 18 15 18 21 21 18 21 23 28 36 42 43 41 43 44 45 41 35 28 22 20 16 14 14
63 37 59 41 42 59 39 31 36 50 37 47 42 40 51 45 35 32 37 39 32 27 32 40 17 30 37 19 20 7 31 349 354 0 354 353 355 355 351 342 339 333 332 338 344 345 350 356 1 8 6 6 5 7 12 14 16 11 12 13 15 15 20 25 22 21 24 27 29 32 35 38 42 43 37 39 39 40 39 33 29 25 23 23 24
48 52 44 51 35 46 48 28 38 37 45 40 47 42 42 47 50 39 33 49 39 24 21 16 nan nan nan 24 33 5 9 353 349 352 352 352 356 357 353 347 338 338 333 334 338 342 346 350 353 358 4 6 10 13 11 13 14 16 15 13 16 9 12 24 22 23 26 32 34 35 36 38 45 45 45 51 40 43 40 36 32 28 27 28 25
41 39 38 39 13 18 31 14 36 30 30 44 34 46 46 34 50 50 30 37 48 nan nan 3 nan nan nan nan nan 335 343 4 353 340 355 347 348 349 352 349 347 341 338 330 327 327 341 344 348 348 352 359 10 13 12 11 14 14 16 10 12 4 13 20 20 21 23 27 32 32 29 35 50 55 48 42 39 42 43 38 35 30 27 27 25
26 27 28 32 24 353 355 1 37 15 44 44 41 29 29 33 29 50 41 44 45 19 nan nan nan nan nan 341 319 342 339 344 338 352 347 350 345 346 356 352 351 346 345 327 325 325 328 343 348 348 347 353 1 6 6 8 12 15 11 12 9 7 11 17 16 16 17 16 20 22 13 18 35 41 38 37 35 36 36 33 29 27 23 20 21
15 15 9 28 23 353 349 17 4 10 28 45 34 35 23 36 22 25 38 41 17 20 3 16 22 16 7 337 344 346 341 349 350 359 354 349 349 349 352 353 355 350 336 331 328 331 330 343 357 2 360 356 359 0 360 3 5 7 8 11 8 9 10 12 11 11 13 13 13 13 13 15 18 23 29 31 32 28 28 30 28 24 24 22 27
4 12 16 21 24 14 4 1 5 8 10 25 37 21 46 39 27 18 21 25 8 19 nan 19 14 352 11 354 355 350 357 8 8 1 360 2 356 1 356 358 2 357 355 356 355 345 339 340 355 359 354 359 0 1 1 360 359 1 3 6 9 11 14 14 13 12 15 11 6 6 6 6 4 3 8 2 354 353 359 4 9 11 13 8 14
19 17 22 22 31 27 7 2 16 15 3 17 11 12 25 24 33 26 16 27 10 nan nan 352 3 6 12 6 1 6 3 18 34 5 7 9 6 12 14 10 5 12 20 20 32 359 351 347 347 2 353 355 4 359 357 358 355 360 2 3 5 12 13 14 11 10 10 4 1 356 354 349 349 350 346 344 342 337 339 343 349 346 336 334 331
33 32 31 21 24 29 12 2 349 15 13 25 5 9 16 17 33 19 32 26 14 346 nan 356 8 12 12 17 7 15 18 28 27 19 7 17 19 24 25 28 18 18 30 38 43 24 18 10 7 358 350 359 3 0 358 357 357 357 359 360 3 4 6 3 2 5 360 357 353 351 348 342 343 341 345 338 332 334 333 334 330 323 317 312 312
45 41 37 32 21 21 7 2 9 360 357 10 14 358 20 7 22 18 20 25 5 354 6 1 21 6 14 20 23 18 37 41 40 27 18 21 29 27 27 34 33 31 38 47 44 40 28 20 9 355 357 357 356 359 3 358 354 356 356 355 354 355 352 350 352 351 350 349 347 346 343 344 342 338 333 329 328 323 321 319 317 313 314 312 307
42 37 38 32 20 14 1 350 345 357 360 3 2 7 1 3 18 20 18 11 7 358 6 2 25 27 17 31 26 25 27 41 37 42 20 27 21 30 30 30 36 31 40 37 36 27 16 13 9 5 4 1 2 6 5 349 350 351 352 351 354 352 345 343 342 340 337 338 339 340 340 339 334 332 331 330 326 325 322 319 319 318 318 314 311
36 30 29 21 6 11 355 350 357 358 356 3 3 8 1 4 17 16 20 19 5 nan 7 18 14 27 31 33 39 28 35 31 30 50 37 27 22 28 27 28 29 35 42 43 36 18 13 14 16 10 6 5 3 10 358 351 355 355 351 347 341 339 338 338 338 337 335 335 335 335 336 335 335 335 334 333 nan 327 324 321 319 318 316 312 nan
30 22 27 9 6 0 350 349 357 358 357 4 4 357 2 10 7 17 16 8 359 4 10 29 15 18 25 29 37 33 36 56 41 42 60 33 20 23 26 20 27 34 41 30 44 20 19 22 24 24 13 7 8 5 354 359 354 353 353 348 340 340 339 339 339 337 336 335 335 335 335 335 335 333 332 nan 329 nan nan 323 321 318 317 nan nan
32 21 22 13 5 1 345 342 358 357 0 2 358 356 4 9 6 9 15 356 354 4 12 12 20 17 25 34 35 41 23 41 38 30 41 50 32 18 nan 10 20 23 26 39 27 27 24 24 24 23 27 16 7 1 2 357 353 355 349 345 343 342 342 342 340 nan nan nan nan nan nan nan 333 331 nan nan nan nan nan nan nan nan 317 316 315
52 18 21 17 9 3 354 351 354 356 359 4 359 4 353 358 10 360 8 349 354 359 16 5 12 21 23 32 25 31 27 42 33 33 27 25 37 21 26 1 24 20 27 30 nan 30 18 25 10 10 21 14 8 8 0 353 352 349 347 347 348 345 343 343 341 nan nan nan nan nan nan nan nan nan nan nan nan nan nan nan 320 nan 319 319 318
44 18 11 21 12 10 6 2 359 350 352 3 3 356 348 3 358 357 356 351 354 4 359 15 19 18 14 16 33 21 13 37 23 21 32 22 32 24 24 10 17 21 34 24 29 21 15 31 16 8 7 9 11 359 352 351 353 350 349 350 351 349 345 343 343 343 nan nan nan nan nan nan nan nan 331 nan nan 325 324 324 321 320 319 318 316
7 23 358 15 12 13 11 11 7 2 351 359 2 349 354 3 353 351 350 350 351 357 355 4 14 14 5 11 1 25 25 29 12 17 26 20 32 23 22 12 15 21 39 41 22 20 10 17 14 7 4 6 7 nan nan nan 350 nan 352 352 352 351 349 347 348 345 343 nan nan nan nan nan 335 333 331 331 329 328 325 322 321 318 316 313 311
320 344 341 357 4 6 15 13 12 6 354 359 356 348 359 355 354 350 355 346 350 350 353 355 2 3 12 357 6 7 19 13 25 22 12 15 26 44 nan 5 nan 16 30 41 24 8 8 0 11 nan 3 7 5 355 351 nan nan nan 348 352 354 353 352 353 353 351 348 345 343 nan 338 nan 337 334 333 332 330 328 325 321 320 317 313 311 309
296 311 334 348 344 350 3 7 7 5 1 359 358 355 351 352 352 348 352 347 341 347 349 352 360 357 10 359 2 16 7 16 23 9 6 7 15 25 26 19 12 356 21 46 32 36 1 357 nan 11 2 1 2 356 352 352 351 344 346 351 353 354 355 nan nan nan 354 352 350 346 345 342 340 338 336 335 333 330 328 nan nan 322 321 319 316
297 310 328 338 323 333 343 356 357 4 2 357 2 357 354 343 348 345 349 349 340 343 348 356 355 358 358 15 0 12 14 2 22 10 358 358 357 4 42 356 354 3 9 4 11 35 15 nan 2 3 nan 354 355 351 349 345 343 343 nan 349 350 353 355 357 nan nan 358 357 354 353 350 345 340 337 337 335 334 nan nan nan nan 328 327 325 323
299 311 319 328 315 323 334 345 349 354 360 0 359 358 348 346 342 345 349 348 343 338 347 354 356 360 357 9 18 7 12 7 2 4 359 350 356 14 24 10 8 356 350 348 7 356 11 16 351 355 350 349 344 344 345 345 339 343 nan nan nan nan 353 357 359 360 0 359 358 356 354 351 348 344 340 337 nan nan 333 333 331 329 327 325 323
301 303 309 312 313 315 328 337 344 346 352 357 360 355 349 345 337 344 346 342 345 335 341 355 357 1 3 8 22 21 8 10 2 354 13 354 nan 8 4 3 24 318 343 332 348 360 4 0 359 346 345 348 338 343 342 344 338 346 345 nan nan nan nan nan nan 360 0 360 360 359 357 354 351 nan nan 339 334 334 332 330 328 325 322 320 318
294 298 308 305 309 314 323 333 335 341 343 352 358 356 351 345 341 339 345 336 338 341 338 350 358 359 6 6 14 26 16 6 10 359 3 22 356 356 350 355 356 349 331 337 337 346 1 352 349 339 341 342 338 333 339 340 336 343 346 341 339 nan nan nan nan nan nan 359 359 359 357 355 352 349 344 338 333 328 328 326 323 321 319 318 316
291 297 303 303 301 310 317 327 329 332 338 344 352 355 351 348 344 339 344 339 334 339 336 337 347 0 359 4 7 14 23 16 8 7 355 6 358 338 334 340 346 340 333 331 338 337 345 nan 343 336 333 334 336 331 334 335 336 337 340 344 342 340 353 nan nan nan nan nan 358 358 356 353 351 348 345 341 336 332 329 325 321 319 317 314 314
293 298 297 305 302 306 309 318 322 326 333 337 343 348 348 348 346 341 338 336 330 327 330 331 335 339 351 354 358 1 8 8 5 1 358 345 338 332 328 328 329 339 325 319 321 326 328 341 nan 324 325 330 329 330 332 333 338 338 339 342 343 342 347 nan nan nan nan 357 356 355 353 351 350 347 345 341 337 335 333 331 327 324 322 320 317
295 287 294 299 301 300 302 310 313 319 321 327 331 337 340 342 346 340 333 332 325 325 324 327 322 324 332 346 345 349 351 359 358 349 353 338 334 328 330 328 327 324 325 312 307 313 318 313 nan 322 323 327 327 329 331 334 339 341 339 339 342 344 342 348 353 353 354 355 355 353 351 nan nan nan nan nan nan nan 339 336 334 332 329 327 324
297 297 290 295 296 301 300 307 313 315 315 317 322 327 331 336 340 340 335 330 325 322 322 321 315 313 321 332 334 334 340 344 351 347 342 334 332 333 331 332 325 320 316 315 318 321 312 315 306 311 314 319 325 331 335 336 335 341 338 338 335 332 332 335 343 348 353 355 355 nan nan nan nan nan nan nan nan nan 341 338 336 334 332 331 328
297 300 297 292 293 297 302 301 309 307 307 310 310 315 323 328 332 336 334 327 323 317 316 319 320 308 312 319 324 327 328 337 340 342 337 334 331 333 334 331 329 319 317 315 317 319 313 314 311 319 326 325 332 336 337 336 333 338 337 337 332 337 335 336 338 348 354 nan nan nan nan nan nan nan nan nan nan nan 339 338 336 nan nan nan nan
297 301 302 298 292 297 300 300 302 304 305 305 308 308 315 321 327 327 332 327 322 318 313 318 318 311 307 313 319 323 324 329 334 338 337 337 333 335 336 335 331 327 318 318 321 323 331 325 326 323 321 332 334 341 342 341 339 339 340 340 339 339 341 340 342 343 354 nan nan nan nan nan nan nan nan nan nan nan nan nan nan nan nan nan nan
298 299 298 301 296 296 298 298 301 302 303 305 303 304 308 315 321 325 329 329 324 320 318 320 321 316 311 312 317 317 316 325 329 333 335 339 337 338 340 338 338 333 328 328 328 340 345 344 337 338 339 337 337 342 346 344 343 343 345 346 346 345 344 345 343 342 347 nan nan nan nan nan nan nan nan nan nan nan nan nan nan nan nan nan nan
301 300 297 299 297 298 299 298 300 301 301 302 304 305 307 311 315 321 323 328 325 321 320 318 322 320 319 312 313 315 316 320 324 327 331 334 337 336 341 337 339 341 334 336 340 340 345 353 346 347 342 342 342 339 344 344 346 347 347 348 350 348 348 346 345 346 343 347 nan nan nan nan nan nan nan nan nan nan nan nan nan nan nan nan nan
306 300 300 299 299 300 301 300 300 303 303 304 306 308 307 307 312 316 320 324 325 321 319 316 317 320 320 316 311 311 313 315 316 322 325 333 335 333 337 335 334 335 333 333 338 338 341 347 347 343 340 341 339 339 340 340 344 347 345 350 349 349 349 347 345 347 341 346 nan nan nan nan nan nan nan nan nan nan nan nan nan nan nan nan nan
309 307 305 304 302 303 302 301 301 302 301 302 305 307 310 308 307 311 314 319 324 320 316 316 313 313 314 314 310 310 312 314 314 315 318 328 329 334 333 331 328 326 330 326 329 335 337 338 338 339 339 334 336 336 338 339 340 344 345 347 348 348 347 348 350 346 334 nan nan nan nan nan nan nan nan nan nan nan nan nan nan nan nan nan nan
318 318 313 310 306 305 304 302 303 301 300 301 301 304 306 306 305 308 311 315 319 316 312 312 309 308 310 309 309 311 313 311 310 310 312 318 324 330 330 327 324 325 326 325 324 329 332 334 332 333 333 336 332 336 336 336 338 339 342 344 348 348 347 347 346 346 339 341 nan nan nan nan nan nan nan nan nan nan nan nan nan nan nan nan nan
321 321 319 313 307 307 307 306 303 299 298 299 300 301 302 302 301 302 305 309 316 315 310 307 303 301 305 310 315 315 315 309 307 304 307 312 315 322 323 322 322 325 324 323 323 324 326 329 331 329 331 329 332 329 329 330 334 337 340 340 344 344 348 347 344 343 341 339 340 342 nan nan nan 339 338 nan nan nan nan nan nan nan nan nan nan
308 317 320 316 310 310 308 307 305 303 303 303 298 298 298 300 299 302 306 311 315 313 308 306 303 300 299 305 311 317 316 317 319 311 310 311 312 319 320 320 322 321 319 317 320 321 321 323 326 324 325 328 326 328 331 330 334 338 333 335 337 339 341 344 344 341 340 337 339 341 340 340 338 nan nan nan nan nan nan nan nan nan nan nan nan
300 306 310 315 313 312 311 309 307 305 305 300 306 314 308 301 303 303 305 312 318 317 312 308 306 305 306 307 310 328 326 325 324 323 320 318 322 319 317 317 318 318 318 317 317 319 318 321 324 322 325 326 325 325 328 329 327 327 328 330 334 333 333 339 339 339 338 335 334 338 338 338 338 334 329 nan nan nan nan nan nan nan nan nan nan
300 302 308 314 319 310 310 311 313 312 308 303 316 315 317 320 311 310 314 317 321 323 319 313 309 307 305 308 305 313 321 323 326 330 328 325 323 324 322 320 316 317 318 319 318 317 318 319 319 320 322 323 323 321 323 323 325 327 327 326 328 328 331 333 337 331 332 331 333 334 338 336 336 334 331 nan nan 329 328 nan nan nan nan nan nan
299 298 308 315 313 309 305 313 316 315 313 314 316 320 324 328 325 318 320 320 319 323 323 320 312 309 310 312 311 308 313 319 324 327 331 332 328 325 321 319 321 324 324 320 317 316 317 316 317 321 319 320 318 318 319 319 321 323 323 324 325 327 328 329 330 332 329 328 328 332 335 334 332 330 328 327 324 323 nan nan nan nan nan nan nan
299 303 310 315 316 315 311 311 316 316 311 316 319 327 331 335 338 331 317 321 323 325 326 327 325 321 318 315 313 313 312 326 327 327 326 328 330 327 323 323 325 325 324 325 323 318 312 314 317 318 319 315 316 317 317 316 315 319 319 321 322 323 324 325 325 327 324 326 324 327 331 330 328 328 330 330 329 nan nan nan nan nan nan nan nan
302 312 318 319 314 313 314 306 305 315 321 312 324 331 337 341 340 333 324 324 327 331 332 334 333 333 330 324 321 321 320 319 326 332 332 331 325 316 313 315 312 320 319 324 325 323 315 311 311 315 313 311 313 312 314 312 314 316 316 319 319 320 321 322 319 321 318 321 324 322 325 326 327 328 331 331 332 nan nan nan nan nan nan nan nan
307 314 317 316 311 309 313 315 306 306 314 321 323 335 340 342 341 328 324 328 323 326 330 332 334 333 330 327 328 329 327 327 326 333 331 332 328 324 324 323 321 316 314 312 308 303 306 305 307 309 307 307 308 307 307 310 312 310 311 314 316 317 314 311 312 313 312 318 318 318 323 322 322 326 329 330 331 nan nan nan nan nan nan nan nan
297 300 302 304 307 307 307 310 314 316 312 320 324 331 339 337 335 310 316 327 321 318 322 324 324 323 322 324 324 327 328 329 329 332 329 322 323 323 324 323 321 316 316 322 325 318 312 309 305 302 302 303 305 304 303 304 306 306 305 305 307 308 308 309 312 310 310 313 315 316 317 318 320 324 328 330 nan nan nan nan nan nan nan nan nan
291 296 298 299 293 296 301 302 308 304 299 301 311 324 329 333 316 305 303 318 317 321 319 316 315 316 317 319 321 321 325 326 326 324 325 319 316 319 319 318 315 310 313 314 321 323 321 317 314 309 304 305 306 307 306 307 302 302 302 304 305 304 305 307 308 308 310 310 313 314 313 315 317 321 nan nan 323 nan nan nan nan nan nan nan nan
292 294 291 288 289 294 300 303 303 299 294 292 302 311 319 319 314 294 303 310 314 317 319 315 309 307 314 326 325 322 322 321 321 320 321 317 316 315 315 317 316 315 315 313 305 308 318 316 314 311 308 304 303 303 303 305 306 302 302 306 303 301 304 305 306 308 309 309 309 311 310 314 314 320 nan nan nan nan nan nan nan nan nan nan nan
290 285 287 291 293 293 302 305 306 305 297 294 302 310 317 315 309 299 304 306 314 319 316 313 310 308 308 314 325 323 318 316 319 319 321 319 317 314 314 313 317 322 325 317 310 305 305 302 305 302 299 303 299 296 295 300 302 303 301 300 298 299 301 302 303 303 306 307 308 310 310 312 nan 319 nan nan nan nan nan nan nan nan nan nan nan